TimeEET,TemperatureF,Dew PointF,Humidity,Sea Level PressureIn,VisibilityMPH,Wind Direction,Wind SpeedMPH,Gust SpeedMPH,PrecipitationIn,Events,Conditions,WindDirDegrees,DateUTC
12:20 AM,1.4,-2.2,85,29.30,6.2,WNW,2.3,-,N/A,Snow,Light Snow Showers,290,2013-03-06 22:20:00
12:50 AM,1.4,-2.2,85,29.30,6.2,NW,3.5,-,N/A,Snow,Light Snow Showers,310,2013-03-06 22:50:00
1:20 AM,-2.2,-5.8,85,29.33,6.2,NNW,2.3,-,N/A,Snow,Light Snow,330,2013-03-06 23:20:00
1:50 AM,-2.2,-4.0,92,29.33,6.2,WNW,3.5,-,N/A,,Partly Cloudy,300,2013-03-06 23:50:00
2:20 AM,-4.0,-5.8,92,29.30,6.2,WNW,5.8,-,N/A,Snow,Light Snow Showers,300,2013-03-07 00:20:00
2:50 AM,-2.2,-5.8,85,29.33,6.2,WNW,6.9,-,N/A,Snow,Light Snow Showers,300,2013-03-07 00:50:00
3:20 AM,-2.2,-4.0,92,29.33,6.2,NW,3.5,-,N/A,Snow,Light Snow Showers,320,2013-03-07 01:20:00
3:50 AM,-2.2,-5.8,85,29.33,0.6,NW,4.6,-,N/A,Snow,Snow Showers,320,2013-03-07 01:50:00
4:20 AM,-2.2,-5.8,85,29.36,3.7,NW,4.6,-,N/A,Snow,Light Snow,310,2013-03-07 02:20:00
4:50 AM,-2.2,-5.8,85,29.36,5.0,NW,6.9,-,N/A,Snow,Light Snow,310,2013-03-07 02:50:00
5:20 AM,-4.0,-7.6,85,29.39,3.7,WNW,5.8,-,N/A,Snow,Light Snow,300,2013-03-07 03:20:00
5:50 AM,-2.2,-5.8,85,29.39,1.9,WNW,6.9,-,N/A,Snow,Light Snow,290,2013-03-07 03:50:00
6:20 AM,-2.2,-4.0,92,29.42,1.4,WNW,5.8,-,N/A,Snow,Light Snow,300,2013-03-07 04:20:00
6:50 AM,3.2,1.4,92,29.42,1.6,NNW,4.6,-,N/A,Snow,Light Snow,340,2013-03-07 04:50:00
7:20 AM,5.0,1.4,85,29.44,6.2,NW,4.6,-,N/A,Snow,Light Snow,310,2013-03-07 05:20:00
7:50 AM,3.2,-0.4,85,29.44,6.2,WNW,4.6,-,N/A,Snow,Light Snow,290,2013-03-07 05:50:00
8:20 AM,6.8,5.0,92,29.47,-9999.0,North,8.1,-,N/A,,Clear,350,2013-03-07 06:20:00
8:58 AM,8.6,5.0,85,29.50,-9999.0,NNW,6.9,-,N/A,,Clear,330,2013-03-07 06:58:00
9:20 AM,8.6,6.8,92,29.50,-9999.0,NNW,5.8,-,N/A,,Clear,330,2013-03-07 07:20:00
10:20 AM,10.4,6.8,85,29.53,-9999.0,NNW,8.1,-,N/A,,Clear,330,2013-03-07 08:20:00
10:50 AM,12.2,8.6,85,29.56,-9999.0,NNW,9.2,-,N/A,,Clear,330,2013-03-07 08:50:00
11:20 AM,14.0,10.4,86,29.59,6.2,NNW,11.5,-,N/A,Snow,Light Snow Showers,330,2013-03-07 09:20:00
11:50 AM,15.8,12.2,86,29.59,6.2,NNW,10.4,-,N/A,,Partly Cloudy,330,2013-03-07 09:50:00
12:20 PM,15.8,12.2,86,29.62,6.2,NNW,9.2,-,N/A,Snow,Light Snow Showers,340,2013-03-07 10:20:00
12:50 PM,17.6,12.2,79,29.65,-9999.0,NNW,9.2,-,N/A,,Clear,340,2013-03-07 10:50:00
1:20 PM,17.6,12.2,79,29.68,-9999.0,NNW,10.4,-,N/A,,Clear,340,2013-03-07 11:20:00
1:50 PM,19.4,12.2,74,29.68,-9999.0,NNW,9.2,-,N/A,,Clear,330,2013-03-07 11:50:00
2:20 PM,19.4,14.0,80,29.71,-9999.0,NW,10.4,-,N/A,,Clear,320,2013-03-07 12:20:00
2:50 PM,19.4,14.0,80,29.71,-9999.0,NW,8.1,-,N/A,,Clear,320,2013-03-07 12:50:00
3:20 PM,19.4,14.0,80,29.71,-9999.0,NW,9.2,-,N/A,,Clear,320,2013-03-07 13:20:00
3:50 PM,19.4,14.0,80,29.74,6.2,NW,9.2,-,N/A,,Partly Cloudy,310,2013-03-07 13:50:00
4:20 PM,19.4,14.0,80,29.74,-9999.0,NW,9.2,-,N/A,,Clear,310,2013-03-07 14:20:00
4:50 PM,19.4,14.0,80,29.74,6.2,WNW,8.1,-,N/A,,Mostly Cloudy,300,2013-03-07 14:50:00
5:20 PM,19.4,12.2,74,29.77,6.2,NW,9.2,-,N/A,Snow,Light Snow Showers,320,2013-03-07 15:20:00
5:50 PM,17.6,10.4,73,29.77,-9999.0,NW,9.2,-,N/A,,Clear,320,2013-03-07 15:50:00
6:20 PM,15.8,8.6,73,29.80,-9999.0,NW,6.9,-,N/A,,Clear,320,2013-03-07 16:20:00
6:50 PM,14.0,6.8,73,29.80,-9999.0,NW,6.9,-,N/A,,Clear,320,2013-03-07 16:50:00
7:20 PM,12.2,6.8,79,29.80,-9999.0,NW,5.8,-,N/A,,Clear,310,2013-03-07 17:20:00
7:50 PM,10.4,6.8,85,29.80,-9999.0,NW,5.8,-,N/A,,Clear,310,2013-03-07 17:50:00
8:20 PM,8.6,5.0,85,29.80,-9999.0,WNW,5.8,-,N/A,,Clear,300,2013-03-07 18:20:00
8:50 PM,6.8,5.0,92,29.80,-9999.0,NW,6.9,-,N/A,,Clear,310,2013-03-07 18:50:00
9:20 PM,6.8,3.2,85,29.83,-9999.0,NW,6.9,-,N/A,,Clear,310,2013-03-07 19:20:00
9:50 PM,6.8,3.2,85,29.83,-9999.0,NW,5.8,-,N/A,,Clear,320,2013-03-07 19:50:00
10:20 PM,5.0,3.2,92,29.83,-9999.0,NW,6.9,-,N/A,,Clear,310,2013-03-07 20:20:00
10:50 PM,5.0,3.2,92,29.83,-9999.0,NW,6.9,-,N/A,,Clear,320,2013-03-07 20:50:00
11:20 PM,5.0,1.4,85,29.83,-9999.0,NW,5.8,-,N/A,,Clear,310,2013-03-07 21:20:00
11:50 PM,3.2,1.4,92,29.86,-9999.0,ESE,2.3,-,N/A,,Clear,120,2013-03-07 21:50:00